Atlantic City, NJ

10:54 PM EDT on September 20, 2017 (GMT -0400)
Atlantic City International

Weather History for KACY - July, 2013

Change the Weather History Date:

Monday, July 1, 2013

  Actual Average Record
Temperature  
Mean Temperature 77 °F 75 °F  
Max Temperature 81 °F 85 °F 99 °F (1968)
Min Temperature 72 °F 66 °F 42 °F (1988)
Degree Days  
Heating Degree Days 0 0  
Month to date heating degree days 0 0  
Since 1 June heating degree days 8 27  
Since 1 July heating degree days 0 0  
Cooling Degree Days 12 10  
Month to date cooling degree days 12 10  
Year to date cooling degree days 317 277  
Since 1 June cooling degree days 223 213  
Growing Degree Days 26 (Base 50)    
Moisture  
Dew Point 72 °F    
Average Humidity 90    
Maximum Humidity 100    
Minimum Humidity 79    
Precipitation  
Precipitation 0.40 in 0.11 in 1.26 in (1922)
Month to date precipitation 0.40 0.11  
Year to date precipitation 25.49 20.50  
Snow  
Snow 0.00 in 0.00 in 0.00 in ()
Month to date snowfall 0.0 0.0  
Since 1 June snowfall 0.0 0.0  
Since 1 July snowfall 0.0 0.0  
Snow Depth 0.00 in    
Sea Level Pressure  
Sea Level Pressure 29.99 in    
Wind  
Wind Speed 11 mph (South)    
Max Wind Speed 17 mph    
Max Gust Speed 25 mph    
Visibility 8 miles    
Events Rain    
T = Trace of Precipitation, MM = Missing Value Source: NWS Daily Summary

Daily Weather History Graph

Daily Weather History Graph

Search for Another Location

Airport or City:

Trip Planner

Search our weather history database for the weather conditions in past years. The results will help you decide how hot, cold, wet, or windy it might be!

Date:

Astronomy

Jul. 01, 2013 Rise Set
Actual Time 5:35 AM EDT 8:29 PM EDT
Civil Twilight 5:02 AM EDT 9:01 PM EDT
Nautical Twilight 4:21 AM EDT 9:42 PM EDT
Astronomical Twilight 3:34 AM EDT 10:29 PM EDT
Moon 1:02 AM EDT (7/1) 2:43 PM EDT (7/1)
Length of Visible Light 15h 58m
Length of Day
14h 54m
Waning Crescent, 35% of the Moon is Illuminated
Jul 1
Waning Crescent
Jul 8
New
Jul 15
First Quarter
Jul 22
Full
Jul 29
Last Quarter

Hourly Weather History & Observations

Time (EDT) Temp. Heat Index Dew Point Humidity Pressure Visibility Wind Dir Wind Speed Gust Speed Precip Events Conditions
12:44 AM 73.0 °F - 72.0 °F 96% 29.92 in 4.0 mi South 10.4 mph - N/A   Overcast
12:54 AM 73.0 °F - 72.0 °F 96% 29.92 in 6.0 mi South 11.5 mph - N/A   Overcast
1:54 AM 73.0 °F - 72.0 °F 96% 29.93 in 7.0 mi South 6.9 mph - N/A   Overcast
2:29 AM 73.0 °F - 72.0 °F 96% 29.92 in 8.0 mi South 15.0 mph 21.9 mph N/A   Overcast
2:54 AM 73.0 °F - 72.0 °F 96% 29.91 in 8.0 mi South 10.4 mph - N/A   Overcast
3:41 AM 73.0 °F - 72.0 °F 96% 29.91 in 7.0 mi South 10.4 mph - N/A   Overcast
3:54 AM 73.0 °F - 72.0 °F 96% 29.91 in 5.0 mi South 10.4 mph - N/A   Overcast
4:54 AM 72.0 °F - 72.0 °F 100% 29.92 in 5.0 mi South 8.1 mph - N/A   Overcast
5:54 AM 73.0 °F - 72.0 °F 96% 29.94 in 4.0 mi South 6.9 mph - N/A   Overcast
6:54 AM 73.0 °F - 72.0 °F 96% 29.96 in 10.0 mi South 11.5 mph - N/A   Overcast
7:54 AM 75.0 °F - 72.0 °F 90% 29.97 in 10.0 mi South 11.5 mph - N/A   Overcast
8:54 AM 77.0 °F - 73.0 °F 88% 29.98 in 10.0 mi SSW 17.3 mph 21.9 mph N/A   Overcast
9:01 AM 78.1 °F - 73.0 °F 84% 29.98 in 10.0 mi SSW 13.8 mph 21.9 mph N/A   Overcast
9:54 AM 80.1 °F 84.2 °F 73.0 °F 79% 29.97 in 10.0 mi SSW 11.5 mph - N/A   Overcast
10:03 AM 80.1 °F 84.2 °F 73.0 °F 79% 29.98 in 10.0 mi South 15.0 mph 20.7 mph N/A   Overcast
10:30 AM 77.0 °F - 75.0 °F 94% 29.98 in 3.0 mi South 11.5 mph - 0.02 in Rain Light Rain
10:54 AM 75.0 °F - 73.9 °F 96% 29.99 in 5.0 mi South 13.8 mph 18.4 mph 0.03 in Rain Light Rain
11:00 AM 75.0 °F - 73.9 °F 96% 29.99 in 1.2 mi South 13.8 mph 21.9 mph 0.02 in Rain Heavy Rain
11:11 AM 73.9 °F - 73.0 °F 97% 29.98 in 2.5 mi South 12.7 mph - 0.16 in Rain Rain
11:15 AM 75.0 °F - 73.0 °F 94% 29.99 in 5.0 mi South 12.7 mph - 0.17 in Rain Light Rain
11:26 AM 73.9 °F - 73.0 °F 97% 29.99 in 10.0 mi South 12.7 mph 19.6 mph 0.17 in Rain Light Rain
11:36 AM 75.0 °F - 73.9 °F 96% 29.99 in 10.0 mi South 12.7 mph - 0.17 in Rain Light Rain
11:54 AM 75.0 °F - 72.0 °F 90% 30.00 in 10.0 mi SSW 11.5 mph - 0.17 in Rain Light Rain
12:10 PM 75.0 °F - 73.0 °F 94% 30.01 in 7.0 mi SSW 10.4 mph - 0.02 in Rain Light Rain
12:54 PM 77.0 °F - 73.0 °F 88% 30.00 in 10.0 mi SSW 8.1 mph - 0.03 in   Mostly Cloudy
1:16 PM 75.9 °F - 73.0 °F 91% 30.00 in 10.0 mi South 8.1 mph - 0.00 in Rain Light Rain
1:32 PM 75.9 °F - 73.0 °F 91% 30.01 in 5.0 mi South 11.5 mph 18.4 mph 0.01 in Rain Light Rain
1:43 PM 75.0 °F - 73.0 °F 94% 30.01 in 10.0 mi South 10.4 mph - 0.01 in   Overcast
1:54 PM 75.0 °F - 72.0 °F 90% 30.01 in 6.0 mi South 5.8 mph - 0.01 in Rain Rain
2:19 PM 73.9 °F - 72.0 °F 93% 30.00 in 2.0 mi SSE 9.2 mph - 0.08 in Rain Heavy Rain
2:29 PM 73.9 °F - 72.0 °F 93% 29.99 in 4.0 mi SE 8.1 mph - 0.12 in Rain Rain
2:54 PM 73.0 °F - 72.0 °F 96% 29.99 in 8.0 mi South 10.4 mph - 0.15 in Rain Light Rain
3:24 PM 75.0 °F - 73.0 °F 94% 29.98 in 10.0 mi South 12.7 mph - 0.01 in   Scattered Clouds
3:54 PM 75.0 °F - 73.0 °F 94% 30.00 in 10.0 mi South 8.1 mph - 0.01 in   Partly Cloudy
4:41 PM 73.0 °F - 71.1 °F 93% 30.00 in 10.0 mi SSW 9.2 mph - 0.00 in   Mostly Cloudy
4:54 PM 73.0 °F - 71.1 °F 93% 30.01 in 10.0 mi South 9.2 mph - 0.00 in   Overcast
5:54 PM 73.9 °F - 72.0 °F 93% 30.01 in 10.0 mi South 11.5 mph - 0.00 in   Overcast
6:54 PM 73.0 °F - 71.1 °F 93% 30.02 in 10.0 mi South 13.8 mph - N/A   Overcast
7:54 PM 73.0 °F - 71.1 °F 93% 30.03 in 10.0 mi South 10.4 mph 25.3 mph N/A   Overcast
8:54 PM 73.0 °F - 72.0 °F 96% 30.04 in 10.0 mi South 12.7 mph - N/A   Overcast
9:54 PM 73.0 °F - 72.0 °F 96% 30.05 in 10.0 mi South 12.7 mph - N/A   Overcast
10:54 PM 73.9 °F - 72.0 °F 93% 30.06 in 10.0 mi South 12.7 mph - N/A   Overcast
11:50 PM 73.4 °F - 71.6 °F 94% 30.06 in 10.0 mi South 10.4 mph - N/A   Scattered Clouds
11:54 PM 73.0 °F - 71.1 °F 93% 30.06 in 10.0 mi South 10.4 mph - N/A   Scattered Clouds